{"data":{"norad_id":64326,"intl_designator":"2025-124K","name":"STARLINK-11678 [DTC]","alt_names":[],"object_type":"PAYLOAD","status":"ACTIVE","operator":null,"country":"US","launch_date":"2025-06-10","launch_site_code":"AFETR","launch_vehicle":null,"mission":null,"orbit_class":"UNKNOWN","rcs_meters":null,"size_class":null,"mass_kg":null,"dimensions":null,"purposes":["comms"],"wikipedia_slug":null,"has_3d_model":false,"image_url":null,"decayed_at":null,"tle_current":{"epoch":"2026-06-25T05:30:42.742368Z","epoch_age_seconds":7675300,"freshness":"OLD","line1":"1 64326U 25124K   26176.22966137  .05753396  14564+0  63681-2 0  9996","line2":"2 64326  42.9867  98.6453 0012381 227.9206 132.0626 16.15986866 59771","mean_motion":16.15986866,"eccentricity":0.0012381,"inclination_deg":42.9867,"raan_deg":98.6453,"arg_perigee_deg":227.9206,"mean_anomaly_deg":132.0626,"bstar":0.0063681,"rev_number":5977,"period_min":89.109635127443,"perigee_km":222.28835170721,"apogee_km":238.65258552099,"semimajor_km":6608.6074686141,"source":"CELESTRAK","updated_at":"2026-06-26T09:00:34.867016Z"}}}